When you browse on this site, cookies collect data to enhance your experience and personalize the content and advertising you see.
Visit our Privacy Policy to learn more. By continuing to use the site, you agree to this use of cookies and data.
EN

Hourly Weather Darzynko

Today, 27 September, Sunday

Time Temperature Precipitation Wind Pressure Humidity
00:00 +17°C° 0.1 mm 2 mps 741 mmHg 92%
01:00 +17°C° 0 mm 2 mps 741 mmHg 93%
02:00 +17°C° 0.3 mm 3 mps 741 mmHg 92%
03:00 +17°C° 0.3 mm 3 mps 741 mmHg 91%
04:00 +17°C° 0.3 mm 4 mps 741 mmHg 89%
05:00 +17°C° 0.1 mm 4 mps 741 mmHg 88%
06:00 +17°C° 0.1 mm 4 mps 741 mmHg 86%
07:00 +17°C° 0 mm 4 mps 742 mmHg 82%
08:00 +16°C° 0 mm 5 mps 742 mmHg 79%
09:00 +17°C° 0 mm 5 mps 742 mmHg 76%
10:00 +17°C° 0 mm 6 mps 742 mmHg 73%
11:00 +19°C° 0 mm 6 mps 742 mmHg 70%
12:00 +20°C° 0 mm 7 mps 742 mmHg 67%
13:00 +21°C° 0 mm 5 mps 743 mmHg 63%
14:00 +21°C° 0 mm 5 mps 743 mmHg 64%
15:00 +20°C° 0 mm 5 mps 743 mmHg 65%
16:00 +20°C° 0 mm 5 mps 743 mmHg 65%
17:00 +19°C° 0.1 mm 4 mps 744 mmHg 69%
18:00 +18°C° 0.1 mm 4 mps 745 mmHg 74%
19:00 +15°C° 0.1 mm 4 mps 745 mmHg 78%
20:00 +14°C° 0.1 mm 3 mps 746 mmHg 82%
21:00 +14°C° 0.1 mm 3 mps 746 mmHg 86%
22:00 +13°C° 0.1 mm 3 mps 747 mmHg 90%
23:00 +12°C° 0 mm 4 mps 747 mmHg 89%

Tomorrow, 28 September, Monday

Time Temperature Precipitation Wind Pressure Humidity
00:00 +11°C° 0 mm 4 mps 748 mmHg 88%
01:00 +10°C° 0 mm 5 mps 748 mmHg 87%
02:00 +10°C° 0 mm 4 mps 749 mmHg 87%
03:00 +10°C° 0 mm 4 mps 749 mmHg 87%
04:00 +10°C° 0 mm 3 mps 749 mmHg 87%
05:00 +10°C° 0 mm 3 mps 750 mmHg 87%
06:00 +10°C° 0 mm 3 mps 750 mmHg 87%
07:00 +10°C° 0 mm 3 mps 751 mmHg 86%
08:00 +11°C° 0 mm 3 mps 751 mmHg 78%
09:00 +13°C° 0 mm 3 mps 752 mmHg 71%
10:00 +14°C° 0 mm 3 mps 752 mmHg 63%
11:00 +16°C° 0 mm 3 mps 752 mmHg 59%
12:00 +17°C° 0 mm 3 mps 752 mmHg 55%
13:00 +18°C° 0 mm 2 mps 752 mmHg 51%
14:00 +18°C° 0 mm 2 mps 752 mmHg 52%
15:00 +18°C° 0 mm 2 mps 752 mmHg 53%
16:00 +17°C° 0 mm 2 mps 753 mmHg 54%
17:00 +16°C° 0 mm 2 mps 753 mmHg 59%
18:00 +15°C° 0 mm 2 mps 753 mmHg 64%
19:00 +13°C° 0 mm 2 mps 753 mmHg 69%
20:00 +13°C° 0 mm 2 mps 753 mmHg 71%
21:00 +13°C° 0 mm 2 mps 753 mmHg 72%
22:00 +12°C° 0 mm 2 mps 753 mmHg 73%
23:00 +12°C° 0 mm 2 mps 753 mmHg 74%

Day after tomorrow, 29 September, Tuesday

Time Temperature Precipitation Wind Pressure Humidity
00:00 +12°C° 0 mm 1 mps 753 mmHg 74%
01:00 +12°C° 0 mm 1 mps 753 mmHg 74%
02:00 +12°C° 0 mm 1 mps 753 mmHg 73%
03:00 +12°C° 0 mm 2 mps 753 mmHg 73%
04:00 +13°C° 0 mm 2 mps 753 mmHg 72%
05:00 +13°C° 0 mm 2 mps 753 mmHg 74%
06:00 +13°C° 0 mm 2 mps 753 mmHg 75%
07:00 +13°C° 0 mm 2 mps 753 mmHg 77%
08:00 +14°C° 0 mm 2 mps 753 mmHg 71%
09:00 +16°C° 0 mm 2 mps 753 mmHg 66%
10:00 +17°C° 0 mm 3 mps 753 mmHg 61%
11:00 +18°C° 0 mm 3 mps 753 mmHg 57%
12:00 +18°C° 0 mm 3 mps 753 mmHg 53%
13:00 +19°C° 0 mm 3 mps 753 mmHg 50%
14:00 +19°C° 0 mm 3 mps 753 mmHg 53%
15:00 +18°C° 0 mm 3 mps 753 mmHg 56%
16:00 +18°C° 0 mm 4 mps 753 mmHg 59%
17:00 +16°C° 0 mm 3 mps 753 mmHg 68%
18:00 +13°C° 0 mm 3 mps 753 mmHg 77%
19:00 +12°C° 0 mm 3 mps 753 mmHg 86%
20:00 +11°C° 0 mm 3 mps 753 mmHg 88%
21:00 +12°C° 0 mm 2 mps 753 mmHg 90%
22:00 +12°C° 0 mm 2 mps 753 mmHg 92%
23:00 +12°C° 0 mm 2 mps 753 mmHg 92%

30 September, Wednesday

Time Temperature Precipitation Wind Pressure Humidity
00:00 +12°C° 0 mm 2 mps 753 mmHg 93%
01:00 +12°C° 0 mm 2 mps 753 mmHg 94%
02:00 +12°C° 0 mm 2 mps 753 mmHg 94%
03:00 +12°C° 0 mm 2 mps 753 mmHg 94%
04:00 +12°C° 0 mm 2 mps 753 mmHg 95%
05:00 +12°C° 0 mm 2 mps 753 mmHg 94%
06:00 +13°C° 0 mm 2 mps 753 mmHg 94%
07:00 +13°C° 0 mm 2 mps 753 mmHg 94%
08:00 +15°C° 0 mm 2 mps 753 mmHg 85%
09:00 +16°C° 0 mm 3 mps 753 mmHg 76%
10:00 +18°C° 0 mm 3 mps 753 mmHg 68%
11:00 +19°C° 0 mm 3 mps 753 mmHg 64%
12:00 +20°C° 0 mm 3 mps 753 mmHg 60%
13:00 +20°C° 0 mm 3 mps 752 mmHg 56%
14:00 +20°C° 0 mm 3 mps 752 mmHg 58%
15:00 +19°C° 0 mm 3 mps 752 mmHg 61%
16:00 +19°C° 0 mm 3 mps 752 mmHg 63%
17:00 +17°C° 0 mm 3 mps 752 mmHg 71%
18:00 +14°C° 0 mm 3 mps 752 mmHg 79%
19:00 +13°C° 0 mm 3 mps 752 mmHg 86%
20:00 +12°C° 0 mm 3 mps 751 mmHg 88%
21:00 +13°C° 0 mm 2 mps 751 mmHg 91%
22:00 +12°C° 0 mm 2 mps 751 mmHg 93%
23:00 +12°C° 0 mm 2 mps 751 mmHg 93%

1 October, Thursday

Time Temperature Precipitation Wind Pressure Humidity
00:00 +12°C° 0 mm 2 mps 750 mmHg 94%
01:00 +12°C° 0 mm 2 mps 750 mmHg 94%
02:00 +12°C° 0 mm 2 mps 750 mmHg 95%
03:00 +12°C° 0 mm 2 mps 749 mmHg 95%
04:00 +12°C° 0 mm 2 mps 749 mmHg 95%
05:00 +12°C° 0 mm 2 mps 749 mmHg 95%
06:00 +12°C° 0 mm 2 mps 749 mmHg 95%
07:00 +13°C° 0 mm 2 mps 749 mmHg 95%
08:00 +13°C° 0 mm 3 mps 748 mmHg 88%
09:00 +16°C° 0 mm 3 mps 748 mmHg 80%
10:00 +17°C° 0 mm 3 mps 748 mmHg 73%
11:00 +17°C° 0 mm 3 mps 748 mmHg 70%
12:00 +18°C° 0 mm 3 mps 747 mmHg 66%
13:00 +18°C° 0 mm 3 mps 747 mmHg 63%
14:00 +18°C° 0 mm 3 mps 747 mmHg 63%
15:00 +17°C° 0 mm 3 mps 746 mmHg 62%
16:00 +17°C° 0 mm 3 mps 746 mmHg 62%
17:00 +16°C° 0 mm 3 mps 746 mmHg 68%
18:00 +14°C° 0 mm 3 mps 746 mmHg 74%
19:00 +12°C° 0 mm 3 mps 746 mmHg 80%
20:00 +12°C° 0 mm 3 mps 745 mmHg 82%
21:00 +12°C° 0 mm 3 mps 745 mmHg 84%
22:00 +12°C° 0 mm 3 mps 745 mmHg 85%
23:00 +12°C° 0 mm 3 mps 745 mmHg 87%

2 October, Friday

Time Temperature Precipitation Wind Pressure Humidity
00:00 +12°C° 0 mm 3 mps 745 mmHg 88%
01:00 +11°C° 0 mm 3 mps 745 mmHg 90%
02:00 +11°C° 0 mm 3 mps 745 mmHg 89%
03:00 +11°C° 0 mm 3 mps 744 mmHg 89%
04:00 +11°C° 0 mm 4 mps 744 mmHg 89%
05:00 +12°C° 0 mm 4 mps 744 mmHg 88%
06:00 +12°C° 0 mm 4 mps 744 mmHg 88%
07:00 +12°C° 0 mm 4 mps 744 mmHg 88%
08:00 +13°C° 0 mm 4 mps 744 mmHg 83%
09:00 +14°C° 0 mm 4 mps 744 mmHg 79%
10:00 +15°C° 0 mm 5 mps 744 mmHg 74%
11:00 +15°C° 0 mm 4 mps 744 mmHg 72%
12:00 +17°C° 0 mm 4 mps 744 mmHg 70%
13:00 +17°C° 0 mm 4 mps 744 mmHg 68%
14:00 +17°C° 0.1 mm 4 mps 744 mmHg 69%
15:00 +17°C° 0.1 mm 4 mps 744 mmHg 71%
16:00 +17°C° 0.1 mm 4 mps 744 mmHg 73%
17:00 +16°C° 0 mm 3 mps 744 mmHg 77%
18:00 +14°C° 0 mm 3 mps 744 mmHg 81%
19:00 +13°C° 0 mm 3 mps 744 mmHg 86%
20:00 +12°C° 0 mm 3 mps 744 mmHg 87%
21:00 +12°C° 0 mm 3 mps 744 mmHg 88%
22:00 +12°C° 0 mm 3 mps 744 mmHg 90%
23:00 +11°C° 0 mm 3 mps 744 mmHg 91%
Show more